[[{"header":{"parameterUnit":"m.s-1","parameterCategory":1,"la1":30.2991,"la2":30.254,"lo1":-89.0895,"lo2":-89.0444,"dy":0.0017,"dx":0.0017,"nx":28,"ny":28,"refTime":"2024-10-13T21:00:00:Z","depth":0,"parameterNumber":2,"parameterNumberName":"U-component_of_WINDS"},"data":[0,0,0,0,0,0,0,0,0,0,0,0,0,0,0,0,0,0,0,0,0,0,0,0,0,0,0,0,0,0,0,0,0,0,0,0,0,0,0,0,0,0,0,0,0,0,0,0,0,0,0,0,0,0,0,0,0,0,-3.9528,-3.9528,0,-3.9595,-3.9595,-3.9596,-3.9515,-3.9512,-3.9509,-3.9506,-3.9572,-3.9577,-3.9581,0,0,0,0,0,0,0,0,0,0,0,0,0,-3.9326,-3.933,-3.9527,-3.9528,-3.9529,-3.9595,-3.9596,-3.9596,-3.9515,-3.9511,-3.9508,-3.9504,-3.9571,-3.9576,-3.9582,0,0,0,0,0,0,0,0,0,0,0,0,0,-3.9405,-3.9332,-3.9527,-3.9497,-3.9495,-3.9594,-3.9596,-3.9597,-3.9516,-3.9511,-3.9507,-3.9503,-3.9569,-3.9576,-3.9582,-3.9715,0,0,-3.9603,-3.9606,0,0,0,0,0,0,0,0,-3.9401,-3.9413,-3.95,-3.9499,-3.9497,-3.9542,-3.9549,-3.9636,-3.9517,-3.9508,-3.9506,-3.95,-3.9566,-3.9573,-3.9595,-3.9718,-3.9721,-3.9604,-3.9608,-3.9611,-3.9613,0,0,0,0,0,0,0,-3.9396,-3.941,-3.9554,-3.9502,-3.95,-3.9478,-3.9485,-3.9565,-3.9561,-3.9508,-3.9502,-3.9512,-3.9564,-3.9589,-3.9596,-3.9722,-3.9604,-3.961,-3.9614,-3.9617,-3.9956,-3.9961,0,0,0,0,0,0,-3.9394,-3.9406,-3.9552,-3.9556,-3.9437,-3.9486,-3.9493,-3.9532,-3.956,-3.956,-3.9515,-3.9508,-3.9579,-3.9588,-3.9598,-3.9754,-3.9611,-3.9618,-3.9622,-3.9951,-3.9957,-3.9962,0,0,0,0,0,0,-3.939,-3.9408,-3.9549,-3.9479,-3.9496,-3.9494,-3.9539,-3.9536,-3.956,-3.9566,-3.9564,-3.9542,-3.9576,-3.9588,-3.9686,-3.9755,-3.9621,-3.9627,-3.9945,-3.9953,-3.996,-4.0067,0,0,0,0,0,0,-3.9385,-3.9407,-3.9458,-3.9481,-3.95,-3.9638,-3.9543,-3.954,-3.9572,-3.9563,-3.959,-3.959,-3.9573,-3.9677,-3.9693,-3.9762,-3.9632,-3.9939,-3.9949,-3.9957,-4.0058,-4.0077,-4.0094,0,0,0,0,0,-3.9378,-3.9486,-3.9461,-3.9479,-3.9564,-3.9642,-3.9652,-3.9632,-3.9578,-3.9629,-3.9632,-3.9589,-3.9745,-3.9687,-3.9705,-3.9777,-3.9935,-3.9946,-3.9957,-4.0049,-4.0074,-4.0094,0,0,0,0,0,0,-3.947,-3.9488,-3.9461,-3.958,-3.961,-3.9628,-3.9691,-3.9658,-3.9704,-3.9693,-3.9664,-3.9671,-3.9776,-3.9786,-3.9722,-3.9906,-3.9831,-3.9846,-3.9895,-3.9918,-3.9936,-3.9931,-3.9638,0,0,0,0,0,-3.9504,-3.9567,-3.9579,-3.9682,-3.9699,-3.9693,-3.9726,-3.9708,-3.9738,-3.975,-3.976,-3.979,-3.9845,-3.9883,-3.9934,-4.0059,-4.0063,-4.0118,-4.0136,-4.0151,-4.0164,-4.0229,-4.0253,-3.9998,-3.9998,-3.9998,0,0,-3.9575,-3.9593,-3.9634,-3.9701,-3.9722,-3.9787,-3.9704,-3.9776,-3.9823,-3.976,-3.9853,-3.9862,-3.9894,-4.0006,-4.0055,-4.0018,-4.0235,-4.0165,-4.0177,-4.0182,-4.0243,-4.0267,-4.0288,-4.0006,-4.0005,-4.0003,0,0,-3.9737,-3.9758,-3.9845,-3.9868,-3.9902,-3.9897,-3.9918,-3.9942,-3.9945,-4.0038,-3.9992,-4.0048,-4.0145,-4.0168,-4.0193,-4.0365,-4.0326,-4.0382,-4.0478,-4.0542,-4.0562,-4.0579,-4.0638,-4.066,-4.0395,-4.0396,-4.0396,0,-3.982,-3.9917,-3.9894,-3.9969,-4.0,-3.9947,-4.0035,-4.0058,-4.0107,-4.0128,-4.0086,-4.0206,-4.0223,-4.0339,-4.0381,-4.0403,-4.0425,-4.0378,-4.0561,-4.0578,-4.0594,-4.065,-4.0673,-4.0402,-4.0401,-4.0401,-4.04,0,-4.0017,-4.0084,-4.0151,-4.02,-4.0238,-4.0319,-4.0308,-4.0349,-4.0328,-4.0327,-4.0422,-4.0442,-4.0495,-4.0522,-4.0502,-4.0635,-4.061,-4.0565,-4.0488,-4.0625,-4.0678,-4.0699,-4.0411,-4.0409,-4.0407,-4.0406,0,0,-4.0237,-4.0273,-4.0297,-4.0318,-4.0352,-4.0403,-4.0482,-4.0535,-4.057,-4.0606,-4.067,-4.0753,-4.0711,-4.0739,-4.0721,-4.0778,-4.091,-4.0725,-4.0725,-4.0757,-4.1056,-4.1089,-4.1114,-4.0885,-4.089,-4.0893,-4.1053,0,-4.0397,-4.0534,-4.0516,-4.0647,-4.0708,-4.0659,-4.0727,-4.0754,-4.0756,-4.0808,-4.0809,-4.0868,-4.0809,-4.0826,-4.088,-4.0883,-4.097,-4.0871,-4.0943,-4.0946,-4.0935,-4.1142,-4.1176,-4.1327,-4.1073,-4.1077,-4.1079,0,-4.0603,-4.0646,-4.0783,-4.0806,-4.0831,-4.0893,-4.094,-4.0991,-4.102,-4.1017,-4.105,-4.1021,-4.1099,-4.1022,-4.1128,-4.1061,-4.109,-4.1096,-4.1101,-4.1105,-4.1019,-4.115,-4.1374,-4.1396,-4.1112,-4.1109,-4.1107,0,-4.0747,-4.084,-4.0933,-4.0953,-4.0983,-4.1028,-4.1042,-4.1067,-4.1101,-4.1142,-4.1163,-4.1213,-4.1239,-4.1278,-4.1263,-4.1209,-4.1371,-4.1294,-4.1369,-4.137,-4.1404,-4.1401,-4.1634,-4.1426,-4.1426,-4.1425,-4.1425,0,-4.0927,-4.1012,-4.0998,-4.1056,-4.1149,-4.1128,-4.1221,-4.1229,-4.1253,-4.131,-4.1271,-4.1325,-4.1304,-4.1357,-4.1346,-4.1434,-4.1447,-4.1445,-4.1441,-4.1448,-4.1447,-4.1464,-4.1452,-4.1431,-4.143,-4.1429,-4.1428,0,-4.1102,-4.1097,-4.1196,-4.1217,-4.1224,-4.1292,-4.1309,-4.1362,-4.1362,-4.1434,-4.145,-4.1449,-4.1509,-4.1499,-4.1565,-4.1558,-4.1667,-4.1651,-4.1657,-4.1652,-4.1728,-4.172,-4.1977,-4.2009,-4.1783,-4.1785,-4.1787,0,-4.1216,-4.1281,-4.1309,-4.1345,-4.1363,-4.1421,-4.1455,-4.1437,-4.1474,-4.1512,-4.1561,-4.1618,-4.1662,-4.176,-4.1764,-4.1814,-4.1798,-4.1885,-4.1805,-4.1809,-4.1796,-4.1792,-4.1797,-4.1899,-4.1902,-4.1904,-4.1906,0,-4.1418,-4.1413,-4.1463,-4.1514,-4.1555,-4.1594,-4.1628,-4.166,-4.1644,-4.1687,-4.1749,-4.1783,-4.1851,-4.1908,-4.1955,-4.1968,-4.1934,-4.1931,-4.1951,-4.1957,-4.1957,-4.1956,-4.1698,-4.1925,-4.1923,-4.1922,-4.1921,-4.192,-4.1565,-4.1619,-4.1648,-4.1705,-4.173,-4.1763,-4.1814,-4.182,-4.1871,-4.1925,-4.1912,-4.1981,-4.2008,-4.2068,-4.2087,-4.214,-4.2108,-4.2137,-4.2144,-4.2151,-4.2159,-4.1951,-4.2149,-4.2148,-4.2148,-4.2147,-4.2147,0,-4.1762,-4.1778,-4.1832,-4.1882,-4.1927,-4.1893,-4.193,-4.1969,-4.2031,-4.206,-4.2105,-4.2175,-4.2229,-4.2238,-4.229,-4.233,-4.2316,-4.2344,-4.234,-4.2343,-4.2186,-4.2163,-4.2355,-4.2355,-4.2355,-4.2355,-4.2355,-4.2355,-4.187,-4.196,-4.1958,-4.206,-4.2075,-4.2143,-4.2166,-4.2196,-4.2219,-4.23,-4.2345,-4.2352,-4.2372,-4.2425,-4.2473,-4.2474,-4.2494,-4.2528,-4.2523,-4.2375,-4.2354,-4.2334,-4.2312,-4.2533,-4.2533,-4.2675,-4.2676,-4.2677]},{"header":{"parameterUnit":"m.s-1","parameterCategory":1,"la1":30.2991,"la2":30.254,"lo1":-89.0895,"lo2":-89.0444,"dy":0.0017,"dx":0.0017,"nx":28,"ny":28,"refTime":"2024-10-13T21:00:00:Z","depth":0,"parameterNumber":3,"parameterNumberName":"V-component_of_WINDS"},"data":[0,0,0,0,0,0,0,0,0,0,0,0,0,0,0,0,0,0,0,0,0,0,0,0,0,0,0,0,0,0,0,0,0,0,0,0,0,0,0,0,0,0,0,0,0,0,0,0,0,0,0,0,0,0,0,0,0,0,-1.613,-1.6131,0,-1.6224,-1.6225,-1.6226,-1.6247,-1.6246,-1.6245,-1.6245,-1.6339,-1.6343,-1.6346,0,0,0,0,0,0,0,0,0,0,0,0,0,-1.5969,-1.5971,-1.613,-1.6131,-1.6133,-1.6223,-1.6225,-1.6226,-1.6247,-1.6246,-1.6245,-1.6244,-1.6338,-1.6342,-1.6346,0,0,0,0,0,0,0,0,0,0,0,0,0,-1.6048,-1.5972,-1.613,-1.6154,-1.6157,-1.6223,-1.6225,-1.6226,-1.6247,-1.6246,-1.6245,-1.6244,-1.6337,-1.6342,-1.6346,-1.6395,0,0,-1.6361,-1.6363,0,0,0,0,0,0,0,0,-1.6043,-1.6054,-1.6149,-1.6152,-1.6156,-1.6222,-1.6203,-1.6283,-1.6247,-1.6213,-1.6245,-1.6243,-1.6301,-1.6309,-1.6329,-1.64,-1.6404,-1.6361,-1.6364,-1.6366,-1.6367,0,0,0,0,0,0,0,-1.6038,-1.605,-1.6167,-1.6151,-1.6155,-1.6159,-1.617,-1.6218,-1.6261,-1.6216,-1.6217,-1.6228,-1.6303,-1.6324,-1.6331,-1.6405,-1.6361,-1.6365,-1.6368,-1.637,-1.652,-1.6521,0,0,0,0,0,0,-1.6028,-1.6045,-1.6164,-1.617,-1.6096,-1.6163,-1.6175,-1.6202,-1.6261,-1.6269,-1.6229,-1.6229,-1.6316,-1.6325,-1.6334,-1.6395,-1.6366,-1.6371,-1.6373,-1.6519,-1.652,-1.6521,0,0,0,0,0,0,-1.6025,-1.6039,-1.616,-1.6108,-1.6124,-1.6167,-1.6198,-1.6204,-1.6226,-1.6271,-1.6279,-1.6243,-1.6316,-1.6328,-1.638,-1.6398,-1.6373,-1.6377,-1.6517,-1.6519,-1.6521,-1.6516,0,0,0,0,0,0,-1.602,-1.6037,-1.6057,-1.6108,-1.6127,-1.6205,-1.6199,-1.6207,-1.6234,-1.6234,-1.6286,-1.6293,-1.6316,-1.6373,-1.6384,-1.6404,-1.6381,-1.6516,-1.6518,-1.652,-1.6515,-1.6518,-1.652,0,0,0,0,0,-1.6014,-1.6052,-1.6058,-1.6072,-1.6152,-1.6206,-1.6216,-1.6242,-1.6235,-1.6255,-1.6284,-1.6292,-1.6394,-1.6378,-1.6391,-1.6413,-1.6515,-1.6517,-1.652,-1.6514,-1.6517,-1.652,0,0,0,0,0,0,-1.6002,-1.606,-1.6066,-1.6122,-1.6159,-1.6209,-1.6235,-1.6245,-1.6284,-1.6283,-1.6313,-1.6324,-1.6374,-1.6399,-1.6379,-1.6463,-1.6454,-1.646,-1.6445,-1.6449,-1.6451,-1.6444,-1.6385,0,0,0,0,0,-1.6006,-1.6045,-1.6093,-1.6138,-1.6156,-1.6192,-1.6217,-1.6233,-1.6272,-1.6288,-1.6321,-1.6358,-1.6399,-1.6425,-1.6465,-1.6518,-1.6529,-1.654,-1.6542,-1.6544,-1.6549,-1.6578,-1.6582,-1.653,-1.653,-1.653,0,0,-1.6015,-1.6051,-1.6074,-1.6136,-1.6167,-1.6206,-1.6205,-1.6247,-1.6277,-1.6294,-1.6345,-1.637,-1.6414,-1.6467,-1.6492,-1.6489,-1.6565,-1.6547,-1.6548,-1.6552,-1.6581,-1.6586,-1.659,-1.6531,-1.6531,-1.6531,0,0,-1.605,-1.6082,-1.6122,-1.6152,-1.6198,-1.6221,-1.6231,-1.628,-1.6297,-1.6349,-1.6362,-1.6397,-1.6467,-1.6497,-1.6521,-1.6566,-1.6575,-1.6578,-1.6591,-1.6619,-1.6623,-1.6627,-1.6643,-1.6648,-1.6582,-1.6582,-1.6582,0,-1.6055,-1.6115,-1.6141,-1.6182,-1.6209,-1.6226,-1.6267,-1.6295,-1.6351,-1.6369,-1.6364,-1.6451,-1.6482,-1.6541,-1.6552,-1.6571,-1.6582,-1.6573,-1.6621,-1.6625,-1.6629,-1.6644,-1.665,-1.6582,-1.6582,-1.6582,-1.6582,0,-1.6119,-1.616,-1.6187,-1.624,-1.627,-1.6311,-1.6342,-1.6369,-1.6382,-1.6405,-1.6457,-1.6494,-1.6541,-1.6556,-1.657,-1.6618,-1.6614,-1.6615,-1.6607,-1.6633,-1.6648,-1.6654,-1.6582,-1.6582,-1.6582,-1.6582,0,0,-1.6151,-1.6217,-1.6226,-1.625,-1.6301,-1.6334,-1.6374,-1.642,-1.6442,-1.648,-1.6514,-1.6572,-1.6572,-1.66,-1.6617,-1.6641,-1.6673,-1.6639,-1.664,-1.6644,-1.6727,-1.6726,-1.6732,-1.6679,-1.668,-1.6681,-1.6723,0,-1.6192,-1.6266,-1.629,-1.6351,-1.6389,-1.6405,-1.644,-1.6474,-1.6497,-1.6532,-1.6557,-1.6597,-1.6595,-1.6612,-1.6637,-1.6664,-1.669,-1.6661,-1.6711,-1.6712,-1.67,-1.674,-1.674,-1.6778,-1.6729,-1.673,-1.6731,0,-1.6252,-1.629,-1.6354,-1.6399,-1.6416,-1.6447,-1.6491,-1.6524,-1.6563,-1.6578,-1.6608,-1.6622,-1.6664,-1.6653,-1.6711,-1.6691,-1.6712,-1.6728,-1.673,-1.6736,-1.6723,-1.6747,-1.6791,-1.6796,-1.674,-1.6739,-1.6739,0,-1.6268,-1.6335,-1.6383,-1.6403,-1.6456,-1.6478,-1.6501,-1.6539,-1.6564,-1.6602,-1.6619,-1.666,-1.6683,-1.6715,-1.674,-1.673,-1.6795,-1.6787,-1.6808,-1.6807,-1.6822,-1.6821,-1.687,-1.6835,-1.6835,-1.6835,-1.6835,0,-1.6312,-1.6351,-1.6391,-1.642,-1.6463,-1.6489,-1.6532,-1.6556,-1.6589,-1.6622,-1.6638,-1.6669,-1.67,-1.6735,-1.6754,-1.6799,-1.6809,-1.6821,-1.6826,-1.682,-1.6819,-1.6835,-1.6833,-1.6836,-1.6836,-1.6836,-1.6836,0,-1.6339,-1.6367,-1.6419,-1.6465,-1.6477,-1.6507,-1.6546,-1.6574,-1.6597,-1.6639,-1.665,-1.6686,-1.6727,-1.6755,-1.6808,-1.6821,-1.6869,-1.6874,-1.6856,-1.6859,-1.6879,-1.6876,-1.694,-1.6949,-1.6908,-1.6909,-1.6909,0,-1.6365,-1.6395,-1.6444,-1.6467,-1.649,-1.6528,-1.6554,-1.658,-1.6606,-1.6652,-1.6675,-1.6717,-1.6753,-1.6818,-1.6848,-1.6888,-1.6894,-1.6913,-1.69,-1.6892,-1.6894,-1.6891,-1.6894,-1.6915,-1.6916,-1.6916,-1.6916,0,-1.6409,-1.6421,-1.6458,-1.6499,-1.653,-1.6564,-1.6597,-1.6616,-1.6647,-1.6676,-1.6718,-1.6746,-1.6799,-1.6841,-1.6884,-1.6907,-1.6917,-1.692,-1.6927,-1.6921,-1.691,-1.6916,-1.6862,-1.6918,-1.6918,-1.6918,-1.6918,-1.6918,-1.6437,-1.6464,-1.6502,-1.6542,-1.657,-1.6601,-1.6629,-1.6655,-1.6691,-1.6736,-1.6749,-1.6793,-1.683,-1.6888,-1.6912,-1.6946,-1.6944,-1.6955,-1.6957,-1.696,-1.6959,-1.6904,-1.6954,-1.6954,-1.6954,-1.6954,-1.6954,0,-1.6481,-1.6506,-1.6543,-1.6589,-1.662,-1.6626,-1.6663,-1.6689,-1.6727,-1.6761,-1.6795,-1.6843,-1.6883,-1.6916,-1.6957,-1.6978,-1.6983,-1.6987,-1.6986,-1.6991,-1.6959,-1.6949,-1.6982,-1.6982,-1.6982,-1.6982,-1.6982,-1.6982,-1.6508,-1.6554,-1.657,-1.6629,-1.6654,-1.6697,-1.6718,-1.6746,-1.6772,-1.6825,-1.6859,-1.6879,-1.6912,-1.6955,-1.6992,-1.7,-1.7015,-1.7018,-1.7028,-1.6997,-1.6994,-1.6991,-1.6981,-1.7021,-1.7021,-1.7057,-1.7057,-1.7058]}]]